Showing default

SDX01, 62459

Orbit data source: Space-Track

SDX01, 62459 is a payload satellite owned by ISRO (IN) in LEO that was launched on Mon, 30 Dec 2024 UTC via a PSLV launch vehicle from the Sirharikota (SRI). Payload-class satellites include a variety of spacecraft equipped with specific instruments for various scientific and technological missions. These include communications satellites like Starlink; space stations such as the ISS; scientific satellites like the Hubble; Earth observation satellites from companies like Planet Labs, Umbra, and HawkEye 360; GPS; miniature CubeSats for education and research; and military/defense satellites.

Loading next visibility...
Identifier
62459, 2024-253A
Orbit
LEO
Country
Flag of ININ / IND
Related business
Manufacturer
ISRO
Mission
Operational Civil Technology
Bus & Motor
SPADEX, Unknown motor
Mass
220 kg wet, ~180 kg dry
Launch date (UTC)
2024-12-30 (1 year ago)
Launch vehicle
PSLV
Launch site
Sirharikota (SRI)
Object type
Payload
Rocket body
Debris
Shape & HBR
Box + 2 Pan, 1.3 m
Radar Cross Section
0.901 m², Large (>1 m²)

Expand to show TLE details & history
Last TLE update: 3 days ago

TLE from 3 days ago
0 SDX01
1 62459U 24253A   26032.86271894  .00030026  00000-0  45567-3 0  9991
2 62459  54.9955 258.3204 0004596 186.9909 173.1063 15.54398444 61392
Epoch: 2026-02-01T20:42Z
TLE epoch observation values (Epoch: 2026-02-01T20:42:18.916Z)
Latitude
Longitude
175.67532°
Altitude
408.103 km
Speed
7.665 km/s
True Right ascension
17h 13m 16s
True Declination
0° 00' 00"
Sunlit
Object was in daylight at epoch
Visualization orbit readout
Latitude
Unknown
Longitude
Unknown
Altitude
Unknown
Speed
Unknown
Apparent Right ascension
Unknown
Apparent Declination
Unknown
Sunlit
N/A
Visualization observer readout
Local Sidereal Time
16:32:07
Azimuth
Unknown
Elevation
Unknown
Doppler factor
Unknown
Orbital elements
Apogee altitude
406.981 km
Perigee altitude
400.747 km
Semi-major axis
6,782.001 km
Eccentricity
0.00046
Inclination
54.9955°
RAAN
258.3204°
Arg. of periapsis
186.9909°
True anomaly
173.11262°
Mean anomaly
173.1063°
Eccentric anomaly
173.10946°
Mean motion
3.88603 °/min
Orbital period
92.64 mins
BSTAR
0.00045567
Loading maneuver chart data...
Computing Atmospheric mass density...
Loading historical data...
Loading historical data...
Loading historical data...
Loading historical data...
Loading historical data...
Loading historical data...
Loading historical data...
Other satellites on launch #253 in the year 2024 (2024-12-30 UTC)

Documentation

Showing up to 5 results
|